Terug naar catalogus

PROVES-ALCYONE

ActiefWetenschapVLEO
NORAD 69797·PAYLOAD·🇺🇸 United States
Deze satellietnaam is nog niet bevestigd door officiële bronnen.

Gelanceerd Nov 20, 1998 vanaf Baikonur Cosmodrome

Loading…

Volgende Passages (komende 24 uur)

TLE

VersSource: Space-Track

Epoch: Sep 13, 2026, 22:13 UTC

1 69797U 98067YM  26256.92616072  .00046625  00000-0  67506-3 0  9992
2 69797  51.6295 219.1343 0010542 141.8982 218.2757 15.55351836 11417

Volg PROVES-ALCYONE in realtime met AllMySat

Download on the App Store